This demonstration page uses our WeatherBlox Daily Observations layout. Learn more.

Left ArrowRight Arrow

36.17497, -115.13722

Hourly Observations for May 4, 2017

Temp ( °F °C ) Dew Point ( °F °C ) Humidity (%) Winds ( mph kmh ) Pressure ( in mb ) Visibility ( mi km ) Precip ( " mm )
12:53 am 00:53 Clear 74 23.3 28 -2.2 18 18 VRB 3 6 29.99 1016 10 16 0.00 0.00
1:53 am 01:53 Clear 72 22.2 27 -2.8 19 19 WNW 5 7 29.98 1015 10 16 0.00 0.00
2:53 am 02:53 Clear 70 21.1 29 -1.7 22 22 W 3 6 29.98 1015 10 16 0.00 0.00
3:53 am 03:53 Clear 69 20.6 28 -2.2 22 22 SW 6 9 29.99 1016 10 16 0.00 0.00
4:53 am 04:53 Clear 67 19.4 30 -1.1 25 25 WNW 5 7 30.00 1016 10 16 0.00 0.00
5:53 am 05:53 Sunny 66 18.9 29 -1.7 25 25 NNW 3 6 30.01 1016 10 16 0.00 0.00
6:53 am 06:53 Sunny 72 22.2 27 -2.8 19 19 NW 6 9 30.03 1017 10 16 0.00 0.00
7:53 am 07:53 Sunny 75 23.9 32 0 21 21 ENE 3 6 30.04 1017 10 16 0.00 0.00
8:53 am 08:53 Sunny 79 26.1 25 -3.9 14 14 Calm 30.04 1017 10 16 0.00 0.00
9:53 am 09:53 Sunny 82 27.8 23 -5 11 11 Calm 30.03 1017 10 16 0.00 0.00
10:53 am 10:53 Sunny 86 30 21 -6.1 9 9 N 8 13 30.01 1016 10 16 0.00 0.00
11:53 am 11:53 Sunny 89 31.7 20 -6.7 8 8 VRB 5 7 29.98 1015 10 16 0.00 0.00
12:53 pm 12:53 Sunny 90 32.2 18 -7.8 7 7 VRB 6 9 29.95 1014 10 16 0.00 0.00
1:53 pm 13:53 Sunny 92 33.3 15 -9.4 6 6 SSW 7 11 29.93 1013 10 16 0.00 0.00
2:53 pm 14:53 Sunny 93 33.9 11 -11.7 5 5 Calm 29.90 1012 10 16 0.00 0.00
3:53 pm 15:53 Sunny 93 33.9 15 -9.4 6 6 VRB 3 6 29.87 1012 10 16 0.00 0.00
4:53 pm 16:53 Sunny 94 34.4 14 -10 5 5 SE 7 11 29.85 1011 10 16 0.00 0.00
5:53 pm 17:53 Sunny 94 34.4 14 -10 5 5 VRB 7 11 29.84 1010 10 16 0.00 0.00
6:53 pm 18:53 Sunny 93 33.9 15 -9.4 6 6 SSE 3 6 29.82 1010 10 16 0.00 0.00
7:53 pm 19:53 Clear 91 32.8 19 -7.2 7 7 Calm 29.82 1010 10 16 0.00 0.00
8:53 pm 20:53 Clear 88 31.1 22 -5.6 9 9 Calm 29.82 1010 10 16 0.00 0.00
9:53 pm 21:53 Clear 82 27.8 29 -1.7 14 14 NW 5 7 29.84 1011 10 16 0.00 0.00
10:53 pm 22:53 Clear 79 26.1 30 -1.1 17 17 NW 3 6 29.83 1010 10 16 0.00 0.00
11:53 pm 23:53 Clear 76 24.4 29 -1.7 18 18 NW 5 7 29.83 1010 10 16 0.00 0.00

Powered by AerisWeather